SWR161 RJAA-LSZH

Flight info

Callsign SWR161
Flight time N/A
Altitude 33000
Route GULBO Y808 PUTER A590 PUGAL/N0470F340 A590 POWAL/N0485F330 DCT NATES R338 MORLY/N0474F350 R338 MARCC DCT JUJXI DCT 70N165W/N0490F340 75N163W/N0487F360 80N160W/N0485F350 DCT LEESL/N0481F370 DCT 8730N06000W/M082F370 85N020W 80N006W/M082F380 75N004W/M082F390 70N000W/N0483F390 DCT KOTIV DCT IDIPI DCT AMRAK/N0476F400 DCT SWALM DCT OMOGI/N0477F390 T721 LAMGO/N0461F270 T721 RILAX
Aircraft A339/H-SADE1E2E3GHIJ3J5M1P2RWXY/LB2D1

Departure

Time N/A
Airport Narita International Airport (RJAA)

Arrival

Time 2026-05-06 17:40
Airport Zürich Airport (LSZH)
Time Latitude Longitude Altitude Speed Heading
2026-05-06 15:42 61.28875 5.43000 35996 ft 482 kts 166°
2026-05-06 15:42 61.25721 5.45153 35994 ft 482 kts 166°
2026-05-06 15:42 61.19357 5.49477 35983 ft 482 kts 166°
2026-05-06 15:43 61.13043 5.53750 35984 ft 482 kts 166°
2026-05-06 15:43 61.06695 5.58027 35968 ft 482 kts 166°
2026-05-06 15:44 61.00325 5.62303 35950 ft 482 kts 166°
2026-05-06 15:44 60.94010 5.66521 35951 ft 482 kts 167°
2026-05-06 15:45 60.87641 5.70761 35955 ft 481 kts 167°
2026-05-06 15:45 60.81300 5.74963 35965 ft 480 kts 167°
2026-05-06 15:46 60.74977 5.79135 35958 ft 480 kts 167°
2026-05-06 15:46 60.68615 5.83316 35964 ft 480 kts 167°
2026-05-06 15:47 60.62281 5.87455 36034 ft 486 kts 167°
2026-05-06 15:47 60.59051 5.89563 36244 ft 487 kts 167°
2026-05-06 15:47 60.55871 5.91633 36522 ft 486 kts 167°
2026-05-06 15:48 60.52648 5.93729 36779 ft 485 kts 167°
2026-05-06 15:48 60.49472 5.95787 37002 ft 485 kts 167°
2026-05-06 15:48 60.46245 5.97875 37189 ft 485 kts 167°
2026-05-06 15:48 60.43038 5.99947 37378 ft 485 kts 167°
2026-05-06 15:49 60.39867 6.01990 37606 ft 485 kts 167°
2026-05-06 15:49 60.36684 6.04038 37815 ft 485 kts 167°
2026-05-06 15:49 60.33466 6.06102 38014 ft 485 kts 167°
2026-05-06 15:49 60.30283 6.08143 38235 ft 485 kts 167°
2026-05-06 15:50 60.27080 6.10191 38462 ft 484 kts 167°
2026-05-06 15:50 60.23870 6.12239 38687 ft 484 kts 167°
2026-05-06 15:50 60.20671 6.14274 38864 ft 484 kts 167°
2026-05-06 15:50 60.17504 6.16282 38949 ft 485 kts 166°
2026-05-06 15:51 60.11096 6.20341 38940 ft 485 kts 167°
2026-05-06 15:51 60.04704 6.24375 38895 ft 483 kts 167°
2026-05-06 15:52 59.98313 6.28386 38863 ft 483 kts 167°
2026-05-06 15:52 59.91926 6.32381 38882 ft 483 kts 167°
2026-05-06 15:53 59.85602 6.36321 38893 ft 484 kts 167°
2026-05-06 15:53 59.79196 6.40295 38915 ft 483 kts 167°
2026-05-06 15:54 59.72817 6.44236 38937 ft 483 kts 167°
2026-05-06 15:54 59.66450 6.48156 38963 ft 483 kts 167°
2026-05-06 15:55 59.60027 6.52092 39003 ft 483 kts 167°
2026-05-06 15:55 59.53645 6.55989 39000 ft 483 kts 167°
2026-05-06 15:56 59.47274 6.59858 38982 ft 483 kts 167°
2026-05-06 15:56 59.40884 6.63729 38947 ft 483 kts 167°
2026-05-06 15:57 59.34470 6.67597 38937 ft 482 kts 167°
2026-05-06 15:57 59.28108 6.71420 38907 ft 482 kts 168°
2026-05-06 15:58 59.21691 6.75256 38897 ft 482 kts 168°
2026-05-06 15:58 59.15308 6.79059 38899 ft 480 kts 168°
2026-05-06 15:59 59.08971 6.82812 38897 ft 480 kts 168°
2026-05-06 15:59 59.02614 6.86558 38891 ft 481 kts 168°
2026-05-06 16:00 58.96258 6.90413 38896 ft 483 kts 165°
2026-05-06 16:00 58.90023 6.95162 38897 ft 485 kts 162°
2026-05-06 16:01 58.83764 6.99998 38895 ft 485 kts 163°
2026-05-06 16:01 58.77501 7.04796 38903 ft 485 kts 163°
2026-05-06 16:02 58.71276 7.09556 38917 ft 484 kts 163°
2026-05-06 16:02 58.65044 7.14308 38920 ft 483 kts 163°
2026-05-06 16:03 58.58810 7.19043 38927 ft 483 kts 163°
2026-05-06 16:03 58.52599 7.23740 38932 ft 483 kts 162°
2026-05-06 16:04 58.46343 7.28459 38932 ft 483 kts 163°
2026-05-06 16:04 58.40134 7.33120 38940 ft 484 kts 163°
2026-05-06 16:05 58.33895 7.37786 38942 ft 484 kts 163°
2026-05-06 16:05 58.27650 7.42441 38942 ft 484 kts 163°
2026-05-06 16:06 58.21413 7.47072 38951 ft 483 kts 163°
2026-05-06 16:06 58.15185 7.51679 38959 ft 483 kts 162°
2026-05-06 16:07 58.08935 7.56283 38955 ft 484 kts 162°
2026-05-06 16:07 58.02703 7.60858 38952 ft 483 kts 163°
2026-05-06 16:08 57.96485 7.65405 38960 ft 483 kts 163°
2026-05-06 16:08 57.90223 7.69968 38946 ft 482 kts 163°
2026-05-06 16:09 57.84201 7.74341 38950 ft 482 kts 163°
2026-05-06 16:09 57.77991 7.78832 38951 ft 482 kts 163°
2026-05-06 16:10 57.71776 7.83311 38953 ft 481 kts 163°
2026-05-06 16:10 57.65549 7.87781 38971 ft 481 kts 163°
2026-05-06 16:11 57.59307 7.92245 38964 ft 481 kts 163°
2026-05-06 16:11 57.53104 7.96668 38964 ft 481 kts 163°
2026-05-06 16:12 57.46878 8.01088 38971 ft 480 kts 163°
2026-05-06 16:12 57.40684 8.05472 38975 ft 480 kts 163°
2026-05-06 16:13 57.34475 8.09848 38971 ft 479 kts 163°
2026-05-06 16:13 57.28266 8.14206 38973 ft 479 kts 163°
2026-05-06 16:14 57.22073 8.18541 38986 ft 479 kts 163°
2026-05-06 16:14 57.15888 8.22854 38976 ft 479 kts 163°
2026-05-06 16:15 57.09678 8.27171 38980 ft 478 kts 163°
2026-05-06 16:15 57.03489 8.31457 38991 ft 476 kts 163°
2026-05-06 16:16 56.97362 8.35685 38985 ft 475 kts 163°
2026-05-06 16:16 56.91202 8.39920 38984 ft 475 kts 163°
2026-05-06 16:17 56.84993 8.44171 38985 ft 475 kts 163°
2026-05-06 16:17 56.78814 8.48388 38977 ft 476 kts 163°
2026-05-06 16:18 56.72643 8.52585 38985 ft 476 kts 163°
2026-05-06 16:18 56.66474 8.56767 38977 ft 476 kts 163°
2026-05-06 16:19 56.60321 8.60923 38975 ft 475 kts 163°
2026-05-06 16:19 56.54161 8.65072 38979 ft 474 kts 164°
2026-05-06 16:20 56.47990 8.69210 38972 ft 474 kts 164°
2026-05-06 16:20 56.41815 8.73336 38969 ft 473 kts 164°
2026-05-06 16:21 56.35684 8.77421 38956 ft 473 kts 164°
2026-05-06 16:21 56.29538 8.81500 38942 ft 473 kts 164°
2026-05-06 16:22 56.23375 8.85577 38947 ft 474 kts 164°
2026-05-06 16:22 56.17200 8.89650 38947 ft 474 kts 164°
2026-05-06 16:23 56.11050 8.93691 38945 ft 474 kts 164°
2026-05-06 16:23 56.04899 8.97720 38939 ft 474 kts 164°
2026-05-06 16:24 55.98703 9.01762 38936 ft 474 kts 164°
2026-05-06 16:24 55.92519 9.05783 38937 ft 474 kts 164°
2026-05-06 16:25 55.86377 9.09761 38937 ft 474 kts 164°
2026-05-06 16:25 55.80182 9.13763 38938 ft 474 kts 163°
2026-05-06 16:26 55.74012 9.17734 38940 ft 473 kts 163°
2026-05-06 16:26 55.67820 9.21708 38941 ft 473 kts 163°
2026-05-06 16:27 55.61668 9.25642 38939 ft 473 kts 163°
2026-05-06 16:27 55.55493 9.29577 38936 ft 473 kts 163°
2026-05-06 16:28 55.49348 9.33480 38933 ft 473 kts 163°
2026-05-06 16:28 55.43170 9.37389 38932 ft 473 kts 163°
2026-05-06 16:29 55.37005 9.41277 38932 ft 473 kts 163°
2026-05-06 16:29 55.30833 9.45156 38930 ft 473 kts 163°
2026-05-06 16:30 55.25677 9.48386 38928 ft 473 kts 163°
2026-05-06 16:30 55.18485 9.52875 38924 ft 473 kts 163°
2026-05-06 16:31 55.12336 9.56702 38922 ft 473 kts 163°
2026-05-06 16:31 55.06167 9.60525 38920 ft 473 kts 163°
2026-05-06 16:32 54.99959 9.64351 38920 ft 473 kts 163°
2026-05-06 16:32 54.93795 9.68145 38917 ft 473 kts 164°
2026-05-06 16:33 54.87517 9.71413 38916 ft 470 kts 171°
2026-05-06 16:34 54.77908 9.73724 38911 ft 465 kts 181°
2026-05-06 16:34 54.71498 9.73550 38907 ft 462 kts 187°
2026-05-06 16:35 54.65128 9.72607 38903 ft 462 kts 187°
2026-05-06 16:35 54.58761 9.71696 38904 ft 462 kts 187°
2026-05-06 16:36 54.52360 9.70781 38903 ft 462 kts 187°
2026-05-06 16:36 54.45993 9.69869 38904 ft 462 kts 187°
2026-05-06 16:37 54.39601 9.68955 38902 ft 462 kts 187°
2026-05-06 16:37 54.33235 9.68048 38901 ft 461 kts 187°
2026-05-06 16:38 54.26840 9.67139 38905 ft 461 kts 187°
2026-05-06 16:38 54.20505 9.66239 38898 ft 462 kts 187°
2026-05-06 16:39 54.14118 9.65335 38898 ft 463 kts 187°
2026-05-06 16:39 54.07678 9.64428 38896 ft 462 kts 187°
2026-05-06 16:40 54.01283 9.63530 38896 ft 462 kts 187°
2026-05-06 16:40 53.94936 9.62641 38893 ft 462 kts 187°
2026-05-06 16:41 53.88545 9.61751 38889 ft 461 kts 187°
2026-05-06 16:41 53.82153 9.60862 38895 ft 461 kts 187°
2026-05-06 16:42 53.75779 9.59976 38891 ft 461 kts 187°
2026-05-06 16:42 53.69407 9.59094 38887 ft 462 kts 187°
2026-05-06 16:43 53.62994 9.58210 38887 ft 463 kts 187°
2026-05-06 16:43 53.56601 9.57330 38889 ft 462 kts 187°
2026-05-06 16:44 53.50235 9.56458 38885 ft 461 kts 187°
2026-05-06 16:44 53.43872 9.55588 38881 ft 461 kts 187°
2026-05-06 16:45 53.37467 9.54715 38879 ft 461 kts 187°
2026-05-06 16:45 53.31127 9.53854 38873 ft 461 kts 187°
2026-05-06 16:46 53.24742 9.52989 38874 ft 461 kts 187°
2026-05-06 16:46 53.18399 9.52132 38867 ft 461 kts 187°
2026-05-06 16:47 53.12022 9.51274 38863 ft 462 kts 187°
2026-05-06 16:47 53.05608 9.50414 38869 ft 462 kts 187°
2026-05-06 16:48 52.99228 9.49562 38875 ft 461 kts 187°
2026-05-06 16:48 52.92876 9.48713 38882 ft 461 kts 187°
2026-05-06 16:49 52.86514 9.47866 38873 ft 460 kts 187°
2026-05-06 16:49 52.80135 9.47019 38863 ft 460 kts 187°
2026-05-06 16:50 52.73777 9.46178 38855 ft 460 kts 187°
2026-05-06 16:50 52.67390 9.45335 38851 ft 460 kts 187°
2026-05-06 16:51 52.61037 9.44499 38847 ft 460 kts 187°
2026-05-06 16:51 52.54679 9.43668 38848 ft 460 kts 187°
2026-05-06 16:52 52.48356 9.42842 38846 ft 460 kts 187°
2026-05-06 16:52 52.41978 9.42008 38841 ft 459 kts 187°
2026-05-06 16:53 52.35616 9.41182 38836 ft 459 kts 187°
2026-05-06 16:53 52.29305 9.40365 38833 ft 459 kts 187°
2026-05-06 16:54 52.22958 9.39544 38826 ft 459 kts 187°
2026-05-06 16:54 52.16619 9.38725 38821 ft 459 kts 187°
2026-05-06 16:55 52.10241 9.37905 38815 ft 459 kts 187°
2026-05-06 16:55 52.03920 9.37095 38813 ft 459 kts 187°
2026-05-06 16:56 51.97586 9.36285 38816 ft 459 kts 187°
2026-05-06 16:56 51.91213 9.35475 38813 ft 459 kts 187°
2026-05-06 16:57 51.84884 9.34670 38806 ft 459 kts 186°
2026-05-06 16:57 51.78545 9.33868 38800 ft 458 kts 186°
2026-05-06 16:58 51.72145 9.33057 38797 ft 458 kts 186°
2026-05-06 16:58 51.65806 9.32259 38798 ft 458 kts 186°
2026-05-06 16:59 51.59513 9.31467 38801 ft 457 kts 186°
2026-05-06 16:59 51.53178 9.30673 38802 ft 458 kts 186°
2026-05-06 17:00 51.46836 9.29880 38803 ft 459 kts 186°
2026-05-06 17:00 51.40480 9.29087 38803 ft 459 kts 186°
2026-05-06 17:01 51.34130 9.28297 38803 ft 459 kts 186°
2026-05-06 17:01 51.27775 9.27508 38801 ft 459 kts 186°
2026-05-06 17:02 51.21451 9.26728 38789 ft 457 kts 186°
2026-05-06 17:02 51.15150 9.25949 38782 ft 457 kts 186°
2026-05-06 17:03 51.08810 9.25168 38785 ft 458 kts 186°
2026-05-06 17:03 51.02513 9.24393 38795 ft 458 kts 186°
2026-05-06 17:04 50.96138 9.23610 38798 ft 458 kts 186°
2026-05-06 17:04 50.89972 9.22851 38799 ft 459 kts 186°
2026-05-06 17:05 50.83457 9.22048 38795 ft 458 kts 186°
2026-05-06 17:05 50.77119 9.21270 38794 ft 458 kts 186°
2026-05-06 17:06 50.70774 9.20414 38785 ft 456 kts 188°
2026-05-06 17:06 50.64504 9.19118 38783 ft 456 kts 189°
2026-05-06 17:07 50.58234 9.17844 38782 ft 457 kts 189°
2026-05-06 17:07 50.51951 9.16557 38783 ft 457 kts 189°
2026-05-06 17:08 50.45660 9.15260 38782 ft 457 kts 189°
2026-05-06 17:08 50.39345 9.13961 38788 ft 458 kts 189°
2026-05-06 17:09 50.33056 9.12670 38789 ft 458 kts 189°
2026-05-06 17:09 50.26765 9.11379 38797 ft 457 kts 189°
2026-05-06 17:10 50.20479 9.10093 38795 ft 456 kts 189°
2026-05-06 17:10 50.14221 9.08816 38794 ft 457 kts 189°
2026-05-06 17:11 50.07923 9.07535 38794 ft 457 kts 189°
2026-05-06 17:11 50.01624 9.06256 38796 ft 458 kts 189°
2026-05-06 17:12 49.95297 9.04973 38793 ft 458 kts 189°
2026-05-06 17:12 49.88990 9.03698 38794 ft 457 kts 189°
2026-05-06 17:13 49.82677 9.02421 38799 ft 457 kts 189°
2026-05-06 17:13 49.76417 9.01153 38803 ft 457 kts 189°
2026-05-06 17:14 49.70114 8.99882 38807 ft 456 kts 189°
2026-05-06 17:14 49.63867 8.98510 38802 ft 455 kts 192°
2026-05-06 17:15 49.57645 8.96799 38807 ft 455 kts 191°
2026-05-06 17:15 49.51445 8.95115 38799 ft 454 kts 192°
2026-05-06 17:15 49.48327 8.94265 38614 ft 451 kts 192°
2026-05-06 17:16 49.45278 8.93430 38162 ft 451 kts 192°
2026-05-06 17:16 49.42180 8.92580 37555 ft 452 kts 192°
2026-05-06 17:16 49.39125 8.91743 36984 ft 453 kts 192°
2026-05-06 17:16 49.36045 8.90899 36497 ft 450 kts 192°
2026-05-06 17:17 49.32969 8.90058 36018 ft 448 kts 192°
2026-05-06 17:17 49.29889 8.89212 35494 ft 447 kts 191°
2026-05-06 17:17 49.26837 8.88376 34927 ft 446 kts 191°
2026-05-06 17:17 49.23819 8.87552 34354 ft 445 kts 192°
2026-05-06 17:18 49.20748 8.86717 33785 ft 446 kts 191°
2026-05-06 17:18 49.17714 8.85892 33130 ft 448 kts 191°
2026-05-06 17:18 49.14650 8.85062 32400 ft 452 kts 191°
2026-05-06 17:18 49.11554 8.84220 31488 ft 456 kts 190°
2026-05-06 17:19 49.08406 8.83363 30115 ft 462 kts 190°
2026-05-06 17:19 49.05255 8.82507 28587 ft 468 kts 190°
2026-05-06 17:19 49.02060 8.81638 27528 ft 462 kts 189°
2026-05-06 17:19 48.98948 8.80791 26868 ft 450 kts 189°
2026-05-06 17:20 48.95890 8.79954 25958 ft 445 kts 189°
2026-05-06 17:20 48.92876 8.79133 25026 ft 441 kts 189°
2026-05-06 17:20 48.89951 8.78340 24154 ft 435 kts 189°
2026-05-06 17:20 48.87126 8.77579 23341 ft 430 kts 189°
2026-05-06 17:21 48.84177 8.76799 22468 ft 426 kts 189°
2026-05-06 17:21 48.81301 8.76039 21864 ft 416 kts 189°
2026-05-06 17:21 48.78476 8.75285 21379 ft 405 kts 189°
2026-05-06 17:21 48.75718 8.74548 20921 ft 397 kts 189°
2026-05-06 17:22 48.73037 8.73832 20468 ft 393 kts 189°
2026-05-06 17:22 48.70375 8.73121 20027 ft 392 kts 189°
2026-05-06 17:22 48.67695 8.72406 19574 ft 389 kts 189°
2026-05-06 17:22 48.65065 8.71704 19142 ft 387 kts 190°
2026-05-06 17:23 48.62407 8.70995 18682 ft 385 kts 190°
2026-05-06 17:23 48.59769 8.70293 18236 ft 383 kts 190°
2026-05-06 17:23 48.57177 8.69601 17803 ft 380 kts 190°
2026-05-06 17:23 48.54564 8.68901 17351 ft 379 kts 190°
2026-05-06 17:24 48.54187 8.68801 17283 ft 379 kts 190°
2026-05-06 17:24 48.53317 8.68567 17127 ft 379 kts 190°
2026-05-06 17:24 48.50734 8.67880 16670 ft 377 kts 190°
2026-05-06 17:24 48.48156 8.67194 16233 ft 376 kts 191°
2026-05-06 17:25 48.45593 8.66511 15797 ft 374 kts 191°
2026-05-06 17:25 48.43061 8.65841 15358 ft 372 kts 191°
2026-05-06 17:25 48.40526 8.65167 14913 ft 371 kts 191°
2026-05-06 17:25 48.37999 8.64501 14475 ft 369 kts 192°
2026-05-06 17:26 48.35465 8.63767 14023 ft 368 kts 192°
2026-05-06 17:26 48.32977 8.63011 13600 ft 366 kts 193°
2026-05-06 17:26 48.30487 8.62252 13185 ft 364 kts 193°
2026-05-06 17:26 48.28019 8.61498 12772 ft 361 kts 194°
2026-05-06 17:27 48.25573 8.60751 12367 ft 359 kts 193°
2026-05-06 17:27 48.23116 8.60006 11945 ft 357 kts 193°
2026-05-06 17:27 48.20723 8.59282 11522 ft 355 kts 193°
2026-05-06 17:27 48.18282 8.58552 11089 ft 354 kts 194°
2026-05-06 17:28 48.15883 8.57836 10676 ft 352 kts 194°
2026-05-06 17:28 48.13501 8.57129 10409 ft 343 kts 194°
2026-05-06 17:28 48.11257 8.56464 10278 ft 321 kts 194°
2026-05-06 17:28 48.09140 8.55839 10210 ft 299 kts 194°
2026-05-06 17:29 48.07175 8.55254 10150 ft 278 kts 194°
2026-05-06 17:29 48.05317 8.54694 10108 ft 267 kts 195°
2026-05-06 17:29 48.03507 8.54149 10063 ft 265 kts 195°
2026-05-06 17:29 48.01702 8.53606 10013 ft 265 kts 195°
2026-05-06 17:30 47.99909 8.53070 9942 ft 262 kts 195°
2026-05-06 17:30 47.98132 8.52544 9885 ft 260 kts 196°
2026-05-06 17:30 47.96344 8.52015 9601 ft 262 kts 195°
2026-05-06 17:30 47.94607 8.51339 9340 ft 259 kts 202°
2026-05-06 17:31 47.92951 8.50328 9077 ft 256 kts 210°
2026-05-06 17:31 47.91383 8.49087 8831 ft 254 kts 211°
2026-05-06 17:31 47.89975 8.47941 8602 ft 252 kts 211°
2026-05-06 17:31 47.88392 8.46651 8345 ft 251 kts 211°
2026-05-06 17:32 47.86907 8.45439 8098 ft 251 kts 212°
2026-05-06 17:32 47.85384 8.44202 7837 ft 252 kts 212°
2026-05-06 17:32 47.83842 8.42944 7588 ft 251 kts 212°
2026-05-06 17:32 47.82312 8.41714 7336 ft 250 kts 213°
2026-05-06 17:33 47.80781 8.40470 7071 ft 249 kts 212°
2026-05-06 17:33 47.79275 8.39256 6845 ft 248 kts 212°
2026-05-06 17:33 47.77760 8.38035 6589 ft 246 kts 212°
2026-05-06 17:33 47.76281 8.36778 6332 ft 243 kts 217°
2026-05-06 17:34 47.74975 8.35278 6090 ft 235 kts 226°
2026-05-06 17:34 47.73848 8.33582 5983 ft 221 kts 229°
2026-05-06 17:34 47.72834 8.31959 5997 ft 214 kts 230°
2026-05-06 17:34 47.71854 8.30378 5984 ft 215 kts 229°
2026-05-06 17:35 47.70840 8.28748 5978 ft 215 kts 229°
2026-05-06 17:35 47.69635 8.27445 5969 ft 221 kts 200°
2026-05-06 17:35 47.68095 8.27327 5956 ft 229 kts 169°
2026-05-06 17:36 47.65413 8.29880 5595 ft 235 kts 138°
2026-05-06 17:36 47.64261 8.31616 5408 ft 234 kts 137°
2026-05-06 17:36 47.63120 8.33306 5219 ft 233 kts 138°
2026-05-06 17:36 47.61940 8.34970 5002 ft 233 kts 139°
2026-05-06 17:37 47.60744 8.36601 4696 ft 237 kts 140°
2026-05-06 17:37 47.59510 8.38261 4379 ft 242 kts 139°
2026-05-06 17:37 47.58263 8.39939 4058 ft 246 kts 139°
2026-05-06 17:37 47.56997 8.41649 3730 ft 250 kts 138°
2026-05-06 17:38 47.55712 8.43392 3394 ft 252 kts 138°
2026-05-06 17:38 47.54419 8.45148 3022 ft 249 kts 138°
2026-05-06 17:38 47.53206 8.46800 2695 ft 224 kts 139°
2026-05-06 17:38 47.52121 8.48276 2462 ft 204 kts 139°
2026-05-06 17:39 47.51112 8.49648 2205 ft 192 kts 139°
2026-05-06 17:39 47.50161 8.50943 2001 ft 181 kts 139°
2026-05-06 17:39 47.49243 8.52192 1773 ft 174 kts 139°
2026-05-06 17:39 47.48367 8.53387 1517 ft 170 kts 139°
2026-05-06 17:40 47.47528 8.54549 1392 ft 160 kts 137°
2026-05-06 17:40 47.46875 8.55415 1392 ft 84 kts 135°
2026-05-06 17:40 47.46634 8.55745 1393 ft 30 kts 138°
2026-05-06 17:40 47.46489 8.55902 1391 ft 18 kts 155°
2026-05-06 17:41 47.46399 8.55944 1389 ft 13 kts 165°
2026-05-06 17:41 47.46312 8.55974 1390 ft 10 kts 168°
2026-05-06 17:41 47.46255 8.55985 1392 ft 5 kts 187°
2026-05-06 17:41 47.46230 8.55940 1392 ft 6 kts 249°
2026-05-06 17:42 47.46228 8.55853 1392 ft 10 kts 277°
2026-05-06 17:42 47.46236 8.55739 1392 ft 10 kts 275°
2026-05-06 17:42 47.46241 8.55664 1392 ft 5 kts 274°
2026-05-06 17:42 47.46246 8.55584 1392 ft 9 kts 274°
2026-05-06 17:43 47.46230 8.55508 1392 ft 2 kts 216°
2026-05-06 17:43 47.46215 8.55501 1392 ft 4 kts 195°
2026-05-06 17:43 47.46189 8.55494 1392 ft 2 kts 186°
2026-05-06 17:43 47.46184 8.55493 1392 ft 0 kts 185°